TimeCDT,TemperatureF,Dew PointF,Humidity,Sea Level PressureIn,VisibilityMPH,Wind Direction,Wind SpeedMPH,Gust SpeedMPH,PrecipitationIn,Events,Conditions,WindDirDegrees,DateUTC
12:53 AM,55.0,28.9,37,29.72,10.0,South,6.9,-,N/A,,Clear,180,2013-10-03 05:53:00
1:53 AM,50.0,30.0,46,29.71,10.0,South,10.4,-,N/A,,Clear,190,2013-10-03 06:53:00
2:53 AM,51.1,30.9,46,29.71,10.0,SSW,6.9,-,N/A,,Clear,210,2013-10-03 07:53:00
3:53 AM,48.0,30.9,52,29.70,10.0,SW,9.2,-,N/A,,Clear,230,2013-10-03 08:53:00
4:53 AM,52.0,30.9,45,29.68,9.0,West,9.2,-,N/A,,Clear,260,2013-10-03 09:53:00
5:53 AM,48.0,30.9,52,29.69,10.0,WSW,6.9,-,N/A,,Clear,240,2013-10-03 10:53:00
6:53 AM,46.0,32.0,58,29.72,10.0,South,6.9,-,N/A,,Clear,170,2013-10-03 11:53:00
7:53 AM,44.1,30.9,60,29.76,10.0,South,8.1,-,N/A,,Clear,190,2013-10-03 12:53:00
8:53 AM,55.0,33.1,43,29.76,10.0,SSW,8.1,-,N/A,,Clear,200,2013-10-03 13:53:00
9:53 AM,64.9,33.1,31,29.73,10.0,SW,8.1,-,N/A,,Clear,220,2013-10-03 14:53:00
10:53 AM,75.0,34.0,22,29.71,10.0,SSW,13.8,-,N/A,,Clear,200,2013-10-03 15:53:00
11:53 AM,79.0,34.0,20,29.71,10.0,SSW,12.7,-,N/A,,Clear,200,2013-10-03 16:53:00
12:53 PM,84.9,33.1,16,29.68,10.0,SSW,13.8,-,N/A,,Clear,210,2013-10-03 17:53:00
1:53 PM,87.1,27.0,11,29.65,10.0,SW,20.7,31.1,N/A,,Clear,220,2013-10-03 18:53:00
2:53 PM,87.1,28.0,12,29.62,10.0,SW,25.3,33.4,N/A,,Clear,220,2013-10-03 19:53:00
3:53 PM,87.1,24.1,10,29.61,10.0,SSW,23.0,36.8,N/A,,Clear,210,2013-10-03 20:53:00
4:53 PM,86.0,28.0,12,29.60,10.0,SW,26.5,35.7,N/A,,Clear,220,2013-10-03 21:53:00
5:53 PM,84.0,25.0,12,29.60,10.0,SW,27.6,33.4,N/A,,Clear,220,2013-10-03 22:53:00
6:53 PM,81.0,25.0,13,29.61,10.0,SSW,21.9,29.9,N/A,,Clear,210,2013-10-03 23:53:00
7:53 PM,72.0,26.1,18,29.64,10.0,SSW,11.5,-,N/A,,Clear,210,2013-10-04 00:53:00
8:53 PM,64.9,28.9,26,29.65,10.0,South,10.4,-,N/A,,Clear,190,2013-10-04 01:53:00
9:53 PM,66.9,28.9,24,29.63,10.0,SSW,12.7,-,N/A,,Clear,210,2013-10-04 02:53:00
11:53 PM,61.0,30.9,32,29.61,10.0,SSW,11.5,-,N/A,,Clear,210,2013-10-04 04:53:00